Weather History for KPNC - October, 2013

Change the Weather History Date:

Wednesday, October 16, 2013

  Actual Average Record
Temperature  
Mean Temperature 46 °F -  
Max Temperature 53 °F 72 °F 88 °F (1950)
Min Temperature 39 °F 45 °F 28 °F (2001)
Degree Days  
Heating Degree Days 20    
Moisture  
Dew Point 39 °F    
Average Humidity 78    
Maximum Humidity 92    
Minimum Humidity 59    
Precipitation  
Precipitation 0.01 in - - ()
Sea Level Pressure  
Sea Level Pressure 30.13 in    
Wind  
Wind Speed 3 mph (NNW)    
Max Wind Speed 8 mph    
Max Gust Speed -    
Visibility 10 miles    
Events      
Averages and records for this station are not official NWS values.
T = Trace of Precipitation, MM = Missing Value Source: NWS Daily Summary

Daily Weather History Graph

Daily Weather History Graph

Search for Another Location

Airport or City:

Trip Planner

Search our weather history database for the weather conditions in past years. The results will help you decide how hot, cold, wet, or windy it might be!

Date:

Astronomy

Oct. 16, 2013 Rise Set
Actual Time 7:36 AM CDT 6:50 PM CDT
Civil Twilight 7:10 AM CDT 7:16 PM CDT
Nautical Twilight 6:40 AM CDT 7:46 PM CDT
Astronomical Twilight 6:10 AM CDT 8:16 PM CDT
Moon 5:28 PM CDT (10/16) 5:09 AM CDT (10/16)
Length of Visible Light 12h 05m
Length of Day
11h 13m
Waxing Gibbous, 94% of the Moon is Illuminated
Oct 16
Waxing Gibbous
Oct 18
Full
Oct 26
Last Quarter
Nov 3
New
Nov 9
First Quarter

Hourly Weather History & Observations

Time (CDT) Temp. Windchill Dew Point Humidity Pressure Visibility Wind Dir Wind Speed Gust Speed Precip Events Conditions
12:53 AM 44.1 °F - 39.0 °F 82% 30.15 in 10.0 mi Calm Calm - N/A   Clear
1:53 AM 42.1 °F 39.2 °F 37.9 °F 85% 30.15 in 10.0 mi North 4.6 mph - N/A   Clear
2:53 AM 42.1 °F 40.2 °F 37.9 °F 85% 30.14 in 10.0 mi NNW 3.5 mph - N/A   Clear
3:53 AM 39.9 °F 35.8 °F 36.0 °F 86% 30.14 in 10.0 mi North 5.8 mph - N/A   Clear
4:53 AM 41.0 °F - 36.0 °F 82% 30.14 in 10.0 mi Calm Calm - N/A   Clear
5:53 AM 39.0 °F 34.8 °F 35.1 °F 86% 30.15 in 10.0 mi NW 5.8 mph - N/A   Clear
6:53 AM 39.0 °F 36.8 °F 36.0 °F 89% 30.17 in 10.0 mi NNW 3.5 mph - N/A   Clear
7:53 AM 39.0 °F - 35.1 °F 86% 30.18 in 10.0 mi Calm Calm - N/A   Clear
8:53 AM 42.1 °F 40.2 °F 37.9 °F 85% 30.19 in 10.0 mi North 3.5 mph - N/A   Mostly Cloudy
9:53 AM 46.0 °F 44.8 °F 39.0 °F 76% 30.18 in 10.0 mi North 3.5 mph - N/A   Mostly Cloudy
10:53 AM 50.0 °F - 39.0 °F 66% 30.18 in 10.0 mi North 5.8 mph - N/A   Overcast
11:53 AM 50.0 °F - 37.9 °F 63% 30.16 in 10.0 mi NNW 6.9 mph - N/A   Overcast
12:53 PM 52.0 °F - 37.9 °F 59% 30.14 in 10.0 mi North 4.6 mph - N/A   Overcast
1:53 PM 52.0 °F - 37.9 °F 59% 30.10 in 10.0 mi NW 8.1 mph - N/A   Overcast
2:53 PM 52.0 °F - 39.0 °F 61% 30.10 in 10.0 mi WNW 5.8 mph - N/A   Overcast
3:53 PM 52.0 °F - 37.9 °F 59% 30.10 in 10.0 mi WNW 8.1 mph - N/A   Overcast
4:53 PM 51.1 °F - 37.9 °F 61% 30.10 in 10.0 mi WNW 6.9 mph - N/A   Overcast
6:53 PM 46.9 °F - 43.0 °F 86% 30.09 in 10.0 mi West 3.5 mph - 0.00 in   Mostly Cloudy
7:53 PM 46.0 °F 44.8 °F 42.1 °F 86% 30.08 in 10.0 mi West 3.5 mph - N/A   Mostly Cloudy
8:53 PM 46.0 °F - 42.1 °F 86% 30.08 in 10.0 mi Calm Calm - N/A   Overcast
9:53 PM 45.0 °F 43.5 °F 42.1 °F 90% 30.08 in 10.0 mi SW 3.5 mph - N/A   Mostly Cloudy
10:53 PM 44.1 °F - 41.0 °F 89% 30.09 in 9.0 mi Calm Calm - N/A   Clear
11:53 PM 42.1 °F - 39.9 °F 92% 30.08 in 9.0 mi Calm Calm - N/A   Clear